Dewpoint
-2 -1 -2 -2 -0 -1 1 2 1 1 1 3 3 3 1 1 0 -1 -1 -2 -3 -2 -3 -2 -2 -3 -7 -3 -1 0 -1 -0 1 -1 -3 -3 -2 0 0 1 0 3 1 -0
-3 -4 -3 -2 -2 -0 1 1 1 2 3 2 3 2 1 1 2 -0 -0 0 -1 -1 -1 0 -3 -6 -3 -3 -3 -2 -2 -1 0 -2 -3 -4 -2 -1 -0 -1 -2 0 2 -1
-7 -5 -5 -6 -3 -2 -1 1 1 1 2 1 1 2 3 3 1 2 2 1 0 0 1 -1 0 -1 -2 -1 -1 0 -1 -0 0 -0 -3 -4 -2 -3 -3 -2 1 1 1 -0
-10 -12 -11 -7 -8 -3 -1 -1 0 0 0 1 1 1 2 1 2 1 1 2 2 2 3 3 2 1 1 -0 1 0 -1 1 0 -0 -1 -1 -1 -0 -1 1 0 2 -0 -1
-11 -15 -14 -12 -11 -8 -1 -0 -0 -0 -0 0 1 0 2 1 -0 -0 0 1 1 1 2 3 3 3 3 2 1 1 2 3 2 2 1 1 2 1 0 0 0 0 0 0
-16 -19 -20 -19 -14 -11 -2 -1 -1 -1 -1 -0 -0 0 1 2 1 -0 0 -0 0 1 1 2 1 -2 -2 -1 1 0 1 1 2 2 0 -0 -0 -2 -2 -1 -2 -1 -1 -4
-16 -17 -17 -17 -17 -12 -4 -3 -3 -2 -3 -0 -1 -1 -0 1 -0 1 -1 -1 1 -1 -1 -6 -8 -5 -3 -1 1 0 -0 1 -0 1 -0 1 -6 -6 -4 -3 -4 -4 -5 -5
-8 -8 -10 -12 -14 -14 -10 -5 -3 -3 -6 -3 -3 -3 -2 -4 -5 -6 -6 -6 -6 -7 -8 -7 -4 -7 -4 -3 -0 0 0 -2 -0 -0 0 -3 -4 -6 -5 -4 -4 -6 -7 -7
-5 -6 -6 -6 -7 -8 -11 -11 -8 -4 -3 -6 -4 -4 -5 -5 -5 -6 -7 -7 -9 -8 -5 -2 -4 -8 -5 -7 -6 -3 -1 -0 -1 -0 1 1 -3 -6 -7 -7 -4 -8 -7 -7
-6 -7 -6 -6 -5 -4 -5 -6 -8 -7 -6 -9 -7 -6 -6 -6 -6 -6 -6 -6 -9 -5 -4 -2 -2 -4 -5 -3 -4 -0 -0 0 1 -1 -0 -1 -5 -6 -6 -1 -3 -7 -6 -7
-9 -8 -8 -7 -7 -6 -7 -5 -5 -5 -6 -9 -9 -8 -7 -6 -5 -5 -7 -9 -8 -6 -4 -2 -2 -2 -4 -4 -6 -8 -7 -2 -1 -1 1 -1 -6 -4 -2 -4 -6 -6 -7 -6
-9 -9 -9 -8 -8 -8 -8 -7 -6 -6 -4 -7 -8 -8 -8 -8 -7 -7 -6 -9 -8 -7 -2 -4 -3 -3 -4 -4 -3 -8 -6 -8 -5 -2 -3 -6 -5 -5 -6 -6 -7 -7 -6 -6
-9 -10 -9 -8 -6 -6 -5 -7 -5 -5 -4 -5 -6 -10 -9 -9 -10 -9 -6 -6 -7 -7 -9 -7 -6 -4 -5 -5 -6 -2 -5 -6 -5 -7 -9 -10 -11 -12 -10 -8 -6 -6 -7 -6
-7 -8 -9 -9 -9 -8 -4 -4 -5 -5 -5 -6 -10 -13 -15 -14 -14 -11 -8 -9 -8 -8 -6 -6 -6 -5 -7 -7 -9 -10 -13 -5 -3 -3 -4 -4 -5 -6 -6 -6 -8 -8 -7 -5
-11 -8 -8 -10 -9 -8 -7 -6 -5 -6 -5 -8 -8 -11 -15 -15 -15 -12 -11 -8 -8 -6 -5 -5 -5 -6 -6 -7 -5 -6 -7 -7 -6 -6 -9 -6 -6 -6 -6 -7 -9 -9 -7 -5
-9 -8 -10 -10 -9 -7 -6 -7 -10 -8 -5 -5 -7 -9 -13 -15 -15 -10 -9 -8 -7 -5 -6 -6 -6 -7 -6 -5 -6 -10 -10 -9 -9 -8 -8 -7 -7 -10 -9 -8 -8 -7 -4 -5
-8 -8 -9 -9 -9 -7 -6 -8 -8 -7 -7 -6 -6 -8 -10 -13 -14 -12 -11 -8 -6 -5 -5 -5 -7 -7 -6 -5 -5 -9 -11 -10 -9 -9 -8 -8 -8 -7 -7 -6 -6 -4 -4 -6
-8 -10 -8 -8 -7 -7 -8 -9 -7 -6 -5 -5 -5 -8 -9 -13 -13 -12 -12 -6 -6 -6 -6 -6 -6 -7 -6 -5 -8 -9 -8 -8 -9 -9 -8 -8 -7 -6 -5 -5 -3 -3 -5 -6
-7 -7 -8 -8 -7 -5 -7 -8 -8 -6 -5 -6 -7 -9 -11 -12 -11 -11 -8 -9 -4 -5 -5 -5 -5 -4 -4 -7 -8 -9 -9 -9 -8 -8 -7 -7 -6 -5 -4 -4 -3 -4 -6 -6
-10 -9 -9 -8 -6 -6 -6 -8 -8 -6 -6 -6 -7 -9 -9 -13 -11 -8 -11 -10 -6 -4 -5 -5 -3 -4 -8 -8 -8 -8 -8 -8 -9 -8 -7 -7 -4 -4 -4 -4 -4 -6 -6 -5
-9 -8 -9 -8 -7 -7 -8 -7 -7 -7 -7 -6 -7 -7 -8 -8 -6 -6 -10 -8 -7 -5 -5 -3 -2 -3 -6 -6 -5 -6 -7 -7 -7 -7 -7 -4 -4 -2 -1 -2 -4 -6 -5 -5
-7 -7 -7 -7 -7 -7 -11 -14 -12 -9 -8 -6 -5 -6 -7 -6 -6 -6 -7 -6 -4 -4 -4 -1 0 -2 -4 -4 -4 -4 -3 -5 -5 -5 -4 -3 -3 -2 -3 -4 -5 -5 -5 -5
-6 -6 -6 -6 -8 -11 -11 -13 -14 -13 -8 -8 -8 -7 -9 -6 -5 -4 -4 -3 -4 -5 -1 -1 -2 -4 -4 -4 -4 -3 -3 -4 -4 -4 -3 -4 -4 -4 -5 -5 -5 -5 -6 -6
-6 -6 -9 -12 -14 -12 -12 -12 -12 -13 -8 -8 -7 -6 -7 -9 -5 -5 -3 -4 -2 -1 -1 -2 -4 -4 -4 -4 -4 -4 -3 -3 -3 -3 -3 -4 -5 -5 -5 -5 -5 -5 -5 -5
-6 -7 -10 -12 -11 -12 -11 -10 -11 -9 -7 -8 -6 -7 -7 -6 -5 -3 -3 -2 -1 -2 -2 -3 -4 -4 -4 -4 -4 -4 -4 -4 -4 -4 -4 -4 -4 -4 -5 -5 -5 -5 -5 -4
-6 -7 -9 -10 -10 -11 -10 -10 -10 -10 -8 -7 -7 -7 -7 -5 -3 -2 -1 -2 -2 -3 -4 -4 -4 -4 -4 -4 -4 -4 -4 -4 -4 -4 -4 -4 -4 -5 -5 -5 -5 -5 -4 -4
-7 -8 -8 -9 -11 -11 -11 -10 -9 -7 -7 -9 -7 -7 -6 -5 -3 -2 -3 -4 -5 -6 -6 -5 -4 -5 -4 -4 -5 -5 -5 -5 -5 -5 -5 -5 -5 -4 -4 -5 -4 -4 -4 -4
Wind_Speed
10 10 10 8 9 6 1 2 1 2 10 4 2 2 2 2 1 2 1 1 3 3 1 3 1 3 1 6 5 3 1 4 3 7 1 1 2 5 5 3 4 3 2 14
7 9 9 8 7 5 3 3 2 2 11 2 3 2 2 1 3 1 1 2 1 4 2 3 3 2 3 9 3 3 2 1 2 6 3 2 2 4 4 3 3 8 6 11
7 7 8 10 7 6 5 2 2 1 3 3 1 1 3 2 2 0 3 3 3 1 2 2 3 2 2 4 4 4 3 4 6 5 3 2 5 6 6 7 5 13 15 30
8 8 8 8 8 5 2 2 1 3 2 1 2 1 1 2 3 1 1 1 3 3 3 3 3 1 5 3 7 3 3 4 2 4 4 3 8 9 13 12 16 9 28 18
8 10 10 9 5 3 1 1 1 3 2 5 2 2 1 3 2 1 1 1 3 3 3 1 2 4 1 3 5 3 2 2 0 4 9 9 11 10 18 17 17 16 22 25
7 9 11 11 7 1 2 2 1 2 2 2 1 1 1 1 1 2 3 2 1 5 7 7 6 10 12 11 3 1 2 2 1 3 1 6 8 19 15 5 5 6 7 15
6 8 10 11 12 7 2 2 2 1 2 1 1 2 2 1 2 3 5 5 1 1 5 15 13 14 17 16 15 15 4 4 3 3 1 6 6 4 6 8 9 10 9 13
5 7 8 9 9 10 7 2 1 2 1 3 4 2 2 3 4 4 7 8 7 10 8 1 4 3 4 6 14 16 15 3 2 2 4 8 7 12 6 6 7 6 5 7
6 6 6 6 7 7 7 5 3 2 2 2 3 3 2 2 2 4 4 4 10 5 2 2 4 4 3 4 2 4 8 11 5 2 4 5 5 3 1 3 9 6 4 5
7 7 6 5 5 6 7 4 2 1 2 5 4 2 2 2 1 1 5 7 6 1 2 3 4 5 5 5 5 4 4 3 13 10 7 7 7 15 1 3 5 6 16 21
10 8 8 9 9 9 9 8 4 3 4 12 15 12 9 4 2 2 4 6 2 2 0 3 4 3 5 3 5 6 7 5 4 5 7 11 7 2 6 5 13 20 33 31
10 9 9 11 11 11 11 10 8 9 11 11 20 22 23 15 15 13 6 4 3 3 2 0 2 3 2 3 4 3 6 7 5 9 7 4 4 9 19 24 27 33 37 38
9 10 12 11 9 10 12 10 8 8 9 13 18 19 11 8 14 17 13 13 15 10 13 3 2 4 2 3 4 3 4 6 4 4 8 20 35 43 39 35 31 32 34 36
11 12 13 12 13 13 15 14 11 11 5 3 12 13 16 15 14 17 24 28 17 19 15 9 3 2 8 4 7 11 12 3 2 10 14 23 35 38 39 36 30 36 37 37
12 12 13 13 13 12 14 17 15 16 13 4 8 22 26 17 18 24 26 24 29 25 13 7 6 7 8 9 4 14 17 17 12 13 20 17 27 33 31 35 37 40 41 43
10 12 12 12 11 13 11 7 12 18 23 7 2 6 19 31 25 20 22 23 25 24 9 9 12 21 12 5 11 27 31 39 36 32 41 40 42 51 49 41 41 38 35 34
11 12 11 10 9 11 10 5 4 2 5 4 4 5 6 10 12 12 12 17 19 19 12 11 24 25 17 8 20 32 39 30 37 41 44 33 46 35 33 29 30 31 33 20
9 11 11 11 11 13 16 16 19 20 13 7 2 4 6 12 15 10 9 7 9 12 11 10 10 9 14 11 28 29 33 40 41 46 39 44 43 38 34 29 32 31 25 17
6 7 6 8 11 7 10 7 7 15 13 3 3 3 4 4 11 10 7 9 5 10 4 6 10 7 9 13 22 35 34 34 41 41 40 40 40 39 32 30 31 28 25 18
8 7 3 3 2 5 7 4 3 3 6 7 6 9 3 9 11 6 4 7 3 3 8 9 6 15 41 46 46 42 32 34 34 30 28 33 33 33 35 34 27 22 18 14
4 1 2 3 2 2 3 3 2 3 3 7 7 9 7 11 6 4 7 3 3 3 5 7 4 8 15 29 33 42 43 37 34 34 32 27 21 18 19 25 26 20 16 13
5 5 4 3 3 2 3 2 5 3 4 4 3 6 11 9 13 8 5 3 3 6 3 4 4 4 5 15 21 19 18 37 36 35 25 21 19 26 26 22 18 18 13 11
8 5 6 4 1 3 5 4 4 2 4 4 8 4 7 6 12 5 4 5 5 3 3 3 4 5 16 15 17 14 7 20 28 27 28 26 26 17 12 10 11 10 9 9
5 5 2 4 2 5 5 5 4 6 5 16 20 9 6 8 5 4 5 5 3 3 2 3 3 18 20 17 14 12 5 7 15 19 18 18 16 12 9 8 7 7 7 7
5 5 4 6 9 8 7 11 13 14 13 19 13 10 6 3 5 4 5 4 4 2 3 3 20 26 21 17 13 9 5 6 12 15 16 15 12 9 7 6 5 4 5 7
8 6 3 6 2 8 8 13 21 17 13 13 8 4 3 4 4 4 4 4 4 5 8 24 27 23 17 14 10 6 2 4 8 10 10 10 9 7 7 8 9 10 10 12
5 6 13 11 9 11 16 13 4 3 6 2 2 3 5 5 4 3 3 3 6 20 29 24 22 17 13 9 6 3 3 5 8 10 11 11 12 12 13 15 16 16 18 19
Wind_Direction
2 359 4 349 348 318 294 188 252 199 178 187 176 221 239 308 15 333 336 244 239 238 257 306 272 234 259 336 155 155 156 146 226 222 66 43 141 177 148 138 236 226 230 273
359 4 359 360 354 4 350 338 254 235 189 178 219 237 308 312 331 320 10 286 286 47 5 279 214 244 111 42 74 104 153 169 3 337 17 64 207 187 167 122 130 202 242 267
312 325 346 3 3 358 350 345 339 338 220 161 94 247 210 235 274 234 304 281 326 342 260 216 298 290 34 27 42 13 167 176 191 197 247 147 238 212 218 181 243 275 244 282
1 349 322 319 342 11 10 69 17 3 343 354 234 336 310 210 234 151 289 199 65 90 269 302 242 316 341 47 10 64 95 219 224 249 278 260 255 246 244 239 249 244 285 274
9 5 2 349 315 351 149 64 20 44 13 342 307 144 305 204 295 294 239 238 171 161 241 294 336 13 336 327 350 39 353 234 20 254 242 245 258 248 249 250 257 268 269 277
1 5 16 14 0 1 121 126 289 271 237 178 81 275 31 360 351 327 328 341 56 241 250 243 232 257 256 260 209 234 241 194 203 257 299 307 276 240 244 220 195 199 257 275
8 12 14 13 23 34 52 100 265 129 249 227 205 351 1 33 21 331 311 345 260 174 272 306 283 266 255 244 230 216 209 189 162 258 255 250 251 228 189 207 243 240 262 278
348 1 6 15 16 29 41 14 347 32 279 293 307 246 230 302 290 264 273 292 284 303 289 279 318 326 333 253 231 227 216 183 265 226 215 297 300 284 142 181 255 229 221 284
300 317 331 354 357 13 22 26 19 40 355 288 302 327 321 277 274 322 261 297 314 292 184 141 190 221 240 283 297 17 191 209 198 113 260 257 248 247 143 141 297 166 215 277
277 295 300 294 303 313 324 342 325 167 248 292 275 241 242 225 136 246 307 340 327 269 190 197 200 228 208 221 216 185 138 187 217 223 248 263 238 270 224 232 239 324 329 321
268 273 280 280 281 286 290 289 267 232 233 278 276 269 257 243 223 165 314 340 338 340 152 217 243 220 227 214 214 192 194 194 184 209 233 263 239 180 190 236 318 323 324 323
272 274 274 274 278 282 280 277 277 262 237 270 286 286 278 268 275 264 226 242 273 281 268 200 310 301 308 217 241 254 242 214 198 191 213 263 284 274 282 293 301 312 319 325
279 274 275 271 267 270 277 271 266 261 267 284 272 273 296 271 279 271 242 252 245 235 243 241 242 230 198 262 260 276 276 247 237 302 260 264 275 277 278 288 299 308 313 314
279 281 276 278 272 268 267 258 252 254 259 256 276 290 286 297 285 271 253 244 252 262 255 229 202 211 229 222 247 242 243 228 237 257 261 276 271 269 276 286 301 300 308 312
277 276 276 272 270 275 271 275 268 261 238 234 268 289 293 286 294 268 252 246 248 243 244 244 245 230 244 238 248 250 228 237 237 251 257 251 270 276 280 291 297 295 304 307
284 276 276 276 274 271 278 292 276 255 245 266 303 252 273 291 290 283 256 253 250 229 231 233 236 232 221 245 250 253 243 238 243 251 255 256 266 274 276 278 283 290 297 300
293 285 276 275 274 262 243 246 290 275 191 224 278 269 259 279 268 269 249 244 228 217 232 235 248 244 218 250 259 258 252 246 248 247 252 260 262 261 273 270 280 290 297 278
295 283 271 268 276 269 265 262 264 270 264 229 255 267 290 250 258 261 253 225 217 223 223 228 230 246 214 244 245 263 256 249 248 246 242 247 261 266 266 268 281 288 285 271
307 318 296 285 269 257 275 283 255 245 239 253 211 204 264 249 252 260 245 241 242 234 215 216 211 217 224 246 244 246 241 232 242 246 244 246 252 258 262 269 280 273 266 260
303 307 267 245 227 261 275 263 221 206 216 227 243 232 269 282 288 278 255 236 213 242 221 198 226 243 245 253 256 261 254 242 249 246 245 246 247 255 258 261 272 260 259 252
338 254 229 249 255 247 240 235 207 216 255 218 236 229 245 265 232 216 225 246 244 240 241 194 237 257 251 264 263 261 250 242 244 251 249 246 236 276 249 266 270 250 241 247
275 267 253 225 214 223 61 270 314 225 246 210 207 244 268 267 223 205 231 250 260 252 211 236 241 261 305 312 313 297 274 231 230 239 245 236 268 270 265 262 245 232 231 223
282 244 198 177 172 49 160 242 277 277 225 231 308 292 295 280 232 210 230 232 234 239 227 237 238 6 340 330 332 332 313 221 223 228 232 247 256 246 228 213 198 198 216 234
223 200 216 158 270 236 202 198 212 252 269 328 323 292 247 258 225 224 246 225 273 257 247 244 356 341 340 344 346 356 19 177 207 216 221 211 195 187 189 198 204 217 228 224
214 171 211 219 237 263 263 273 263 259 289 315 306 286 242 240 256 210 252 261 250 258 337 322 332 334 336 344 355 5 43 126 155 169 177 181 184 194 210 214 207 195 180 167
205 206 215 228 265 272 258 262 259 285 289 304 284 267 287 259 243 228 228 318 11 347 325 317 323 327 332 338 349 7 53 147 163 168 177 185 187 183 171 151 140 138 139 139
212 237 227 232 266 263 276 284 272 278 287 244 289 278 240 299 269 2 23 26 314 309 313 314 320 323 323 329 339 18 98 130 146 154 151 149 141 137 135 130 123 127 128 128
Height
1520 1519 1514 1515 1511 1512 1505 1506 1508 1506 1508 1513 1512 1512 1509 1507 1507 1507 1507 1507 1506 1505 1504 1506 1503 1503 1502 1500 1501 1504 1504 1515 1523 1511 1505 1506 1508 1511 1519 1534 1538 1526 1531 1472
1521 1520 1516 1514 1510 1510 1512 1509 1507 1507 1507 1510 1509 1510 1509 1508 1508 1507 1507 1507 1505 1505 1506 1508 1506 1503 1503 1501 1501 1504 1505 1512 1530 1517 1509 1507 1508 1510 1511 1519 1524 1523 1519 1470
1520 1518 1518 1516 1512 1508 1511 1512 1510 1507 1507 1509 1510 1510 1509 1510 1509 1508 1510 1508 1506 1505 1507 1506 1507 1505 1503 1503 1503 1504 1502 1510 1512 1522 1505 1504 1508 1508 1508 1510 1512 1494 1491 1470
1518 1515 1518 1515 1513 1509 1512 1511 1512 1511 1510 1509 1510 1510 1510 1507 1509 1510 1510 1508 1508 1510 1509 1508 1506 1506 1506 1504 1504 1504 1505 1510 1510 1507 1508 1507 1504 1503 1502 1502 1495 1501 1463 1486
1516 1515 1514 1516 1513 1508 1511 1513 1512 1512 1511 1511 1510 1509 1509 1508 1508 1509 1508 1510 1509 1512 1512 1509 1509 1510 1510 1507 1506 1505 1507 1506 1509 1508 1504 1502 1499 1498 1490 1489 1487 1485 1476 1471
1515 1517 1512 1513 1514 1509 1509 1512 1512 1513 1511 1511 1512 1511 1510 1509 1509 1509 1509 1510 1510 1510 1510 1510 1510 1509 1509 1508 1507 1507 1507 1508 1509 1502 1502 1501 1494 1479 1475 1476 1478 1478 1478 1457
1514 1514 1514 1515 1513 1511 1510 1512 1513 1512 1513 1510 1510 1510 1510 1509 1511 1511 1510 1511 1511 1512 1510 1509 1507 1504 1502 1502 1501 1502 1503 1504 1509 1507 1502 1505 1472 1467 1468 1472 1468 1467 1464 1457
1515 1514 1515 1514 1515 1514 1512 1514 1514 1512 1514 1511 1510 1510 1510 1510 1511 1512 1510 1509 1510 1508 1508 1508 1505 1503 1500 1496 1493 1494 1497 1502 1507 1510 1505 1482 1474 1460 1462 1466 1461 1454 1456 1453
1515 1514 1515 1514 1516 1515 1514 1514 1515 1515 1514 1512 1511 1512 1511 1512 1511 1510 1507 1507 1507 1507 1505 1504 1510 1505 1500 1498 1490 1491 1494 1497 1501 1508 1500 1489 1463 1456 1456 1459 1461 1449 1451 1448
1514 1512 1514 1515 1515 1515 1516 1515 1515 1515 1515 1512 1512 1512 1512 1511 1512 1512 1510 1508 1506 1505 1504 1503 1504 1503 1496 1498 1491 1492 1496 1495 1490 1493 1491 1475 1459 1453 1457 1463 1460 1447 1446 1444
1512 1509 1511 1514 1514 1514 1514 1515 1514 1515 1514 1511 1510 1510 1511 1511 1512 1513 1510 1510 1507 1505 1508 1503 1499 1498 1494 1491 1487 1485 1485 1491 1492 1486 1485 1474 1450 1453 1459 1450 1444 1444 1442 1439
1508 1507 1508 1510 1510 1511 1512 1512 1512 1512 1512 1510 1507 1506 1505 1507 1508 1510 1508 1508 1506 1505 1504 1502 1500 1493 1495 1490 1489 1478 1482 1476 1481 1477 1465 1451 1450 1448 1447 1446 1444 1442 1441 1437
1505 1505 1506 1506 1506 1507 1509 1509 1509 1509 1508 1506 1502 1499 1501 1501 1502 1503 1506 1504 1503 1501 1501 1501 1501 1500 1496 1494 1485 1478 1471 1468 1469 1467 1451 1451 1450 1446 1444 1444 1442 1439 1438 1434
1502 1502 1503 1503 1502 1504 1504 1505 1506 1507 1507 1505 1499 1496 1495 1495 1496 1496 1496 1497 1497 1498 1498 1497 1496 1496 1489 1487 1477 1472 1470 1468 1465 1456 1450 1449 1443 1441 1439 1439 1438 1434 1432 1430
1497 1499 1499 1499 1499 1500 1500 1501 1501 1502 1505 1500 1497 1495 1489 1488 1488 1488 1489 1490 1492 1492 1493 1490 1487 1484 1484 1475 1471 1450 1461 1457 1457 1445 1445 1444 1435 1433 1436 1434 1431 1429 1428 1422
1493 1495 1496 1496 1496 1496 1497 1497 1494 1494 1496 1496 1493 1488 1484 1481 1480 1479 1479 1480 1482 1484 1482 1479 1476 1473 1474 1464 1446 1431 1441 1441 1443 1437 1435 1435 1430 1427 1425 1426 1424 1423 1422 1418
1490 1491 1493 1493 1493 1493 1495 1496 1494 1493 1493 1493 1489 1483 1477 1475 1474 1472 1471 1472 1471 1471 1473 1469 1466 1461 1464 1450 1429 1419 1423 1428 1425 1425 1424 1426 1420 1417 1415 1418 1417 1417 1414 1411
1487 1488 1488 1489 1490 1490 1489 1489 1490 1490 1491 1487 1484 1481 1477 1473 1468 1467 1465 1464 1465 1463 1459 1456 1452 1450 1450 1430 1395 1408 1411 1413 1412 1406 1411 1408 1409 1410 1408 1411 1411 1410 1408 1407
1486 1486 1486 1486 1486 1486 1485 1485 1485 1486 1490 1485 1483 1483 1480 1467 1465 1463 1461 1459 1456 1449 1444 1442 1442 1431 1415 1389 1395 1391 1392 1397 1391 1394 1399 1401 1402 1401 1401 1403 1403 1402 1402 1403
1484 1484 1484 1483 1483 1483 1485 1482 1483 1482 1481 1480 1475 1472 1472 1470 1465 1459 1458 1449 1446 1439 1426 1424 1419 1403 1387 1380 1377 1379 1382 1383 1385 1387 1388 1390 1391 1392 1392 1394 1397 1397 1398 1399
1482 1482 1482 1483 1483 1483 1482 1480 1481 1479 1477 1471 1468 1467 1465 1462 1459 1455 1453 1444 1435 1429 1412 1412 1397 1378 1370 1369 1365 1362 1366 1371 1375 1375 1377 1382 1385 1386 1386 1386 1389 1392 1393 1395
1482 1483 1482 1482 1482 1482 1482 1484 1480 1478 1471 1463 1462 1461 1458 1454 1449 1447 1444 1437 1428 1417 1404 1398 1379 1366 1366 1363 1358 1353 1350 1355 1363 1369 1373 1376 1379 1381 1382 1382 1383 1387 1389 1392
1479 1479 1478 1479 1482 1486 1487 1493 1481 1478 1463 1460 1460 1458 1453 1448 1441 1440 1436 1425 1415 1403 1397 1382 1372 1370 1368 1364 1359 1351 1346 1348 1356 1363 1369 1373 1375 1376 1377 1378 1381 1384 1386 1389
1476 1475 1478 1480 1486 1478 1471 1468 1464 1460 1459 1458 1456 1453 1450 1442 1438 1429 1420 1409 1401 1388 1384 1378 1377 1375 1370 1365 1360 1355 1351 1351 1355 1360 1364 1368 1372 1374 1376 1378 1380 1382 1385 1387
1470 1471 1476 1474 1465 1464 1463 1462 1461 1458 1458 1457 1453 1447 1443 1437 1429 1415 1410 1400 1389 1384 1382 1383 1380 1376 1372 1367 1363 1360 1358 1357 1358 1361 1365 1368 1371 1373 1375 1377 1378 1380 1383 1386
1466 1466 1466 1463 1464 1459 1459 1458 1457 1457 1456 1455 1451 1447 1441 1428 1414 1400 1396 1394 1394 1396 1395 1388 1382 1377 1373 1369 1367 1364 1363 1363 1363 1364 1366 1368 1370 1372 1375 1376 1379 1381 1384 1387
1461 1459 1457 1458 1457 1455 1454 1454 1454 1455 1455 1454 1450 1449 1432 1426 1411 1400 1404 1408 1408 1402 1394 1388 1382 1378 1374 1370 1369 1367 1366 1366 1366 1366 1367 1369 1371 1374 1376 1378 1381 1384 1387 1390